GW2693 Weather Reports


time (UTC)temp
C
wind
direction
speed
KPH
gust
KPH
rain 1hr
cm
rain 24hr
cm
rain mn
cm
humidity
%
barometer
mb
20260510071708 21 194 1.6 1.6 0.00 0.00 0.00 94 1008.4
20260510071205 21 195 1.6 1.6 0.00 0.00 0.00 94 1008.4
20260510070702 21 222 0.0 0.0 0.00 0.00 0.00 94 1008.5
20260510070200 21 202 3.2 4.8 0.00 0.00 0.00 94 1008.6
20260510065655 21 204 1.6 3.2 0.00 0.00 0.00 94 1008.5
20260510065151 21 200 0.0 0.0 0.00 0.00 0.00 95 1008.6
20260510064648 21 227 0.0 0.0 0.00 0.00 0.00 96 1008.3
20260510064145 21 213 3.2 3.2 0.00 0.00 0.00 96 1008.8
20260510063642 20 166 3.2 3.2 0.00 0.00 0.00 97 1008.7
20260510063138 20 189 0.0 0.0 0.00 0.00 0.00 97 1008.7
20260510062634 20 156 0.0 0.0 0.00 0.00 0.00 97 1008.5
20260510062131 20 158 0.0 0.0 0.00 0.00 0.00 96 1008.9
20260510061626 20 158 0.0 0.0 0.00 0.00 0.00 96 1008.8
20260510061124 20 158 0.0 0.0 0.00 0.00 0.00 95 1008.6
20260510060620 20 158 0.0 0.0 0.00 0.00 0.00 95 1008.7
20260510060116 20 158 0.0 0.0 0.00 0.00 0.00 95 1008.5
20260510055612 19 158 0.0 0.0 0.00 0.00 0.00 95 1008.5
20260510055110 19 154 0.0 0.0 0.00 0.00 0.00 94 1008.4
20260510054606 19 154 0.0 0.0 0.00 0.00 0.00 94 1008.4
20260510054101 20 154 0.0 0.0 0.00 0.00 0.00 94 1008.4
20260510053601 20 154 0.0 0.0 0.00 0.00 0.00 94 1008.3
20260510053058 20 154 0.0 0.0 0.00 0.00 0.00 94 1008.4
20260510052554 20 154 0.0 0.0 0.00 0.00 0.00 93 1008.3
20260510052050 20 154 0.0 0.0 0.00 0.00 0.00 93 1008.2
20260510051546 20 154 0.0 0.0 0.00 0.00 0.00 93 1008.3
20260510051043 20 155 0.0 0.0 0.00 0.00 0.00 93 1008.4
20260510050540 20 155 0.0 0.0 0.00 0.00 0.00 93 1008.3
20260510050037 20 155 0.0 0.0 0.00 0.00 0.00 93 1008.1
20260510045534 20 155 0.0 0.0 0.00 0.00 0.00 93 1008.2
20260510045030 20 155 0.0 0.0 0.00 0.00 0.00 93 1008.4
20260510044527 20 154 0.0 0.0 0.00 0.00 0.00 93 1008.1
20260510044025 20 154 0.0 0.0 0.00 0.00 0.00 92 1008.2
20260510043520 20 154 0.0 0.0 0.00 0.00 0.00 92 1007.9
20260510043015 20 154 0.0 0.0 0.00 0.00 0.00 92 1007.9
20260510042510 20 154 0.0 0.0 0.00 0.00 0.00 92 1007.8
20260510042005 20 154 0.0 0.0 0.00 0.00 0.00 92 1007.9
20260510041503 20 154 0.0 0.0 0.00 0.00 0.00 91 1007.8
20260510041000 20 154 0.0 0.0 0.00 0.00 0.00 91 1007.9
20260510040456 20 155 0.0 0.0 0.00 0.00 0.00 91 1007.8
20260510035952 20 155 0.0 0.0 0.00 0.00 0.00 91 1008.0
20260510035449 20 155 0.0 0.0 0.00 0.00 0.00 91 1007.8
20260510034948 20 155 0.0 0.0 0.00 0.00 0.00 91 1007.8
20260510034447 20 155 0.0 0.0 0.00 0.00 0.00 91 1007.5
20260510033943 20 154 0.0 0.0 0.00 0.00 0.00 90 1007.9
20260510033439 20 154 0.0 0.0 0.00 0.00 0.00 90 1007.8
20260510032937 21 154 0.0 0.0 0.00 0.00 0.00 90 1007.7
20260510032433 21 154 0.0 0.0 0.00 0.00 0.00 89 1007.6
20260510031928 21 154 0.0 0.0 0.00 0.00 0.00 89 1007.6
20260510031424 21 154 0.0 0.0 0.00 0.00 0.00 89 1007.6
20260510030919 21 155 0.0 0.0 0.00 0.00 0.00 89 1007.3
20260510030410 21 154 0.0 0.0 0.00 0.00 0.00 88 1007.4
20260510025908 21 154 0.0 0.0 0.00 0.00 0.00 88 1007.3
20260510025405 21 155 0.0 0.0 0.00 0.00 0.00 88 1007.3
20260510024902 21 155 0.0 0.0 0.00 0.00 0.00 87 1007.2
20260510024358 21 154 0.0 0.0 0.00 0.00 0.00 86 1007.1
20260510023854 21 154 0.0 0.0 0.00 0.00 0.00 86 1007.0
20260510023351 21 154 0.0 0.0 0.00 0.00 0.00 86 1006.7
20260510022848 22 154 0.0 0.0 0.00 0.00 0.00 85 1006.7
20260510022347 22 154 0.0 0.0 0.00 0.00 0.00 85 1006.5
20260510021846 22 154 0.0 0.0 0.00 0.00 0.00 83 1006.6
20260510021345 22 154 0.0 0.0 0.00 0.00 0.00 83 1006.7
20260510020841 22 154 0.0 0.0 0.00 0.00 0.00 82 1006.6
20260510020341 22 154 0.0 0.0 0.00 0.00 0.00 82 1006.5
20260510015837 23 154 0.0 0.0 0.00 0.00 0.00 81 1006.4
20260510015333 23 154 0.0 0.0 0.00 0.00 0.00 81 1006.2
20260510014828 23 154 0.0 0.0 0.00 0.00 0.00 80 1006.0
20260510014326 23 154 0.0 0.0 0.00 0.00 0.00 79 1006.4
20260510013821 24 154 0.0 0.0 0.00 0.00 0.00 77 1006.1
20260510013317 24 154 0.0 0.0 0.00 0.00 0.00 77 1006.0
20260510012812 25 154 0.0 0.0 0.00 0.00 0.00 76 1006.0
20260510012312 25 154 0.0 0.0 0.00 0.00 0.00 75 1006.0
20260510011807 25 154 0.0 0.0 0.00 0.00 0.00 73 1006.0
20260510011303 25 154 0.0 0.0 0.00 0.00 0.00 72 1005.9
20260510010800 26 154 0.0 0.0 0.00 0.00 0.00 73 1006.0
20260510010256 26 154 0.0 0.0 0.00 0.00 0.00 72 1005.9
20260510005753 26 121 1.6 1.6 0.00 0.00 0.00 72 1005.9
20260510005249 26 144 3.2 3.2 0.00 0.00 0.00 72 1005.8
20260510004748 26 191 3.2 4.8 0.00 0.00 0.00 72 1006.0
20260510004245 26 137 1.6 3.2 0.00 0.00 0.00 73 1006.2
20260510003742 27 75 1.6 1.6 0.00 0.00 0.00 73 1006.1
20260510003239 27 113 3.2 4.8 0.00 0.00 0.00 72 1006.2
20260510002737 28 109 0.0 0.0 0.00 0.00 0.00 73 1006.2
20260510002235 28 66 1.6 1.6 0.00 0.00 0.00 74 1005.8
20260510001731 28 58 1.6 1.6 0.00 0.00 0.00 74 1005.7
20260510001230 29 125 3.2 6.4 0.00 0.00 0.00 74 1005.7
20260510000726 29 68 4.8 9.7 0.00 0.00 0.00 74 1005.7
20260510000226 29 56 6.4 6.4 0.00 0.00 0.00 73 1005.8
20260509235720 29 83 0.0 0.0 0.00 0.00 0.00 74 1005.7
20260509235216 29 81 0.0 0.0 0.00 0.00 0.00 73 1005.7
20260509234712 28 110 0.0 0.0 0.00 0.00 0.00 73 1005.7
20260509234209 28 78 1.6 1.6 0.00 0.00 0.00 73 1005.4
20260509233708 28 62 0.0 0.0 0.00 0.00 0.00 74 1005.6
20260509233205 28 30 3.2 3.2 0.00 0.00 0.00 73 1005.3
20260509232701 28 45 3.2 3.2 0.00 0.00 0.00 71 1005.2
20260509232157 28 85 0.0 0.0 0.00 0.00 0.00 71 1005.3
20260509231655 28 56 0.0 1.6 0.00 0.00 0.00 71 1005.2
20260509231152 28 57 0.0 1.6 0.00 0.00 0.00 71 1005.4
20260509230649 28 57 0.0 0.0 0.00 0.00 0.00 70 1005.3
20260509230146 29 7 0.0 0.0 0.00 0.00 0.00 70 1005.2
20260509225641 29 9 0.0 0.0 0.00 0.00 0.00 70 1005.1
20260509225137 29 9 0.0 0.0 0.00 0.00 0.00 68 1005.0
20260509224633 30 4 3.2 3.2 0.00 0.00 0.00 68 1005.0
20260509224130 29 3 0.0 1.6 0.00 0.00 0.00 68 1005.1
20260509223627 30 355 4.8 6.4 0.00 0.00 0.00 66 1005.0
20260509223124 30 311 4.8 6.4 0.00 0.00 0.00 63 1004.8
20260509222620 31 62 0.0 0.0 0.00 0.00 0.00 60 1004.9
20260509222116 31 76 0.0 0.0 0.00 0.00 0.00 60 1004.7
20260509221612 31 72 0.0 1.6 0.00 0.00 0.00 58 1004.8
20260509221108 32 90 1.6 1.6 0.00 0.00 0.00 57 1005.2
20260509220604 32 71 0.0 0.0 0.00 0.00 0.00 55 1004.9
20260509220101 32 356 0.0 0.0 0.00 0.00 0.00 54 1004.7
20260509215556 33 226 4.8 6.4 0.00 0.00 0.00 52 1004.8
20260509215054 33 253 1.6 3.2 0.00 0.00 0.00 52 1005.0
20260509214551 33 263 4.8 4.8 0.00 0.00 0.00 51 1004.7
20260509214047 34 228 4.8 4.8 0.00 0.00 0.00 51 1004.7
20260509213543 33 172 0.0 1.6 0.00 0.00 0.00 54 1004.7
20260509213040 33 341 3.2 4.8 0.00 0.00 0.00 55 1004.8
20260509212537 33 14 1.6 1.6 0.00 0.00 0.00 56 1004.7
20260509212034 33 209 4.8 6.4 0.00 0.00 0.00 55 1004.9
20260509211530 33 181 0.0 0.0 0.00 0.00 0.00 56 1005.0
20260509211027 32 121 4.8 4.8 0.00 0.00 0.00 57 1005.3
20260509210524 32 65 3.2 3.2 0.00 0.00 0.00 57 1005.2
20260509210020 32 65 4.8 4.8 0.00 0.00 0.00 57 1005.4
20260509205515 32 131 3.2 3.2 0.00 0.00 0.00 58 1005.7
20260509205010 32 46 3.2 4.8 0.00 0.00 0.00 57 1005.8
20260509204507 33 93 1.6 1.6 0.00 0.00 0.00 55 1005.8
20260509204003 33 41 1.6 3.2 0.00 0.00 0.00 56 1005.9
20260509203459 32 85 0.0 0.0 0.00 0.00 0.00 55 1005.9
20260509202957 32 254 3.2 6.4 0.00 0.00 0.00 58 1006.0
20260509202453 32 352 1.6 3.2 0.00 0.00 0.00 58 1006.2
20260509201948 32 135 1.6 3.2 0.00 0.00 0.00 62 1006.3
20260509201443 32 33 0.0 0.0 0.00 0.00 0.00 60 1006.1
20260509200940 32 131 0.0 0.0 0.00 0.00 0.00 59 1006.2
20260509200440 32 344 9.7 16.1 0.00 0.00 0.00 60 1006.5
20260509195937 31 82 0.0 1.6 0.00 0.00 0.00 64 1006.2
20260509195433 31 235 3.2 4.8 0.00 0.00 0.00 62 1006.2
20260509194932 31 265 4.8 4.8 0.00 0.00 0.00 61 1006.2
20260509194428 32 89 1.6 3.2 0.00 0.00 0.00 63 1006.2
20260509193926 32 224 1.6 1.6 0.00 0.00 0.00 62 1006.3
20260509193425 32 277 3.2 4.8 0.00 0.00 0.00 63 1006.5
20260509192921 31 294 0.0 0.0 0.00 0.00 0.00 65 1006.6
20260509192418 31 259 6.4 6.4 0.00 0.00 0.00 66 1006.8
20260509191913 31 243 4.8 4.8 0.00 0.00 0.00 66 1006.7
20260509191409 31 60 1.6 1.6 0.00 0.00 0.00 66 1006.7
20260509190905 31 28 0.0 1.6 0.00 0.00 0.00 66 1007.0
20260509190402 31 126 0.0 1.6 0.00 0.00 0.00 67 1007.2
20260509185900 31 342 0.0 0.0 0.00 0.00 0.00 68 1007.1
20260509185356 30 80 1.6 1.6 0.00 0.00 0.00 69 1007.2
20260509184853 30 112 1.6 1.6 0.00 0.00 0.00 69 1007.5
20260509184350 31 353 1.6 1.6 0.00 0.00 0.00 70 1007.4
20260509183847 30 253 4.8 4.8 0.00 0.00 0.00 68 1007.5
20260509183342 30 103 0.0 0.0 0.00 0.00 0.00 73 1007.3
20260509182838 29 250 4.8 4.8 0.00 0.00 0.00 74 1007.7
20260509182336 30 282 8.0 9.7 0.00 0.00 0.00 73 1007.7
20260509181833 30 192 6.4 6.4 0.00 0.00 0.00 72 1007.8
20260509181330 29 232 0.0 1.6 0.00 0.00 0.00 75 1007.7
20260509180827 29 81 1.6 3.2 0.00 0.00 0.00 75 1007.9
20260509180323 29 283 4.8 4.8 0.00 0.00 0.00 76 1008.0
20260509175820 30 226 3.2 4.8 0.00 0.00 0.00 75 1008.0
20260509175316 28 324 1.6 1.6 0.00 0.00 0.00 78 1008.1
20260509174812 28 275 1.6 3.2 0.00 0.00 0.00 77 1008.1
20260509174307 28 251 8.0 9.7 0.00 0.00 0.00 76 1008.0
20260509173803 28 10 3.2 3.2 0.00 0.00 0.00 79 1008.1
20260509173254 28 210 6.4 9.7 0.00 0.00 0.00 78 1008.2
20260509172750 27 155 1.6 3.2 0.00 0.00 0.00 81 1008.4
20260509172247 28 216 6.4 6.4 0.00 0.00 0.00 79 1008.3
20260509171742 27 335 3.2 4.8 0.00 0.00 0.00 81 1008.4
20260509171239 27 255 3.2 4.8 0.00 0.00 0.00 80 1008.5
20260509170736 27 279 4.8 11.3 0.00 0.00 0.00 82 1008.3
20260509170232 27 339 4.8 4.8 0.00 0.00 0.00 84 1008.2
20260509165730 26 9 3.2 3.2 0.00 0.00 0.00 85 1008.4
20260509165225 27 344 4.8 6.4 0.00 0.00 0.00 84 1008.2
20260509164722 27 136 0.0 0.0 0.00 0.00 0.00 82 1008.3
20260509164217 27 271 4.8 6.4 0.00 0.00 0.00 82 1008.3
20260509163715 27 270 3.2 3.2 0.00 0.00 0.00 80 1008.4
20260509163212 27 167 3.2 4.8 0.00 0.00 0.00 82 1008.3
20260509162709 26 226 8.0 9.7 0.00 0.00 0.00 84 1008.2
20260509162204 26 254 8.0 11.3 0.00 0.00 0.00 86 1008.2
20260509161700 26 247 3.2 3.2 0.00 0.00 0.00 88 1008.5
20260509161156 26 256 6.4 6.4 0.00 0.00 0.00 87 1008.4
20260509160652 26 240 1.6 3.2 0.00 0.00 0.00 87 1008.5
20260509160148 26 251 1.6 1.6 0.00 0.00 0.00 87 1008.1
20260509155644 26 242 4.8 4.8 0.00 0.00 0.00 87 1008.2
20260509155140 25 211 0.0 0.0 0.00 0.00 0.00 90 1008.3
20260509154636 25 196 3.2 3.2 0.00 0.00 0.00 90 1008.2
20260509154133 25 114 3.2 4.8 0.00 0.00 0.00 91 1007.8
20260509153630 25 237 3.2 3.2 0.00 0.00 0.00 90 1008.2
20260509153127 25 202 3.2 3.2 0.00 0.00 0.00 90 1008.3
20260509152623 25 125 0.0 0.0 0.00 0.00 0.00 92 1007.9
20260509152120 25 89 0.0 0.0 0.00 0.00 0.00 92 1008.1
20260509151616 25 69 0.0 0.0 0.00 0.00 0.00 94 1008.2
20260509151114 24 59 0.0 0.0 0.00 0.00 0.00 95 1008.2
20260509150612 24 54 0.0 0.0 0.00 0.00 0.00 95 1008.1
20260509150110 24 44 0.0 0.0 0.00 0.00 0.00 96 1008.4
20260509145606 24 55 0.0 0.0 0.00 0.00 0.00 96 1008.5
20260509145101 23 72 0.0 0.0 0.00 0.00 0.00 96 1008.6
20260509144558 23 68 0.0 0.0 0.00 0.00 0.00 96 1008.6
20260509144055 23 35 0.0 0.0 0.00 0.00 0.00 97 1008.9
20260509143552 23 57 0.0 0.0 0.00 0.00 0.00 97 1008.4
20260509143050 23 37 0.0 0.0 0.00 0.00 0.00 97 1008.3
20260509142545 23 57 0.0 0.0 0.00 0.00 0.00 97 1008.4
20260509142041 23 50 0.0 0.0 0.00 0.00 0.00 97 1008.2
20260509141537 23 61 0.0 0.0 0.00 0.00 0.00 98 1008.0
20260509141034 23 66 0.0 0.0 0.00 0.00 0.00 98 1007.9
20260509140531 23 76 0.0 0.0 0.00 0.00 0.00 99 1007.8
20260509140029 22 22 1.6 3.2 0.00 0.00 0.00 99 1008.0
20260509135526 22 70 1.6 1.6 0.00 0.00 0.00 99 1007.9
20260509135023 22 0 0.0 0.0 0.00 0.00 0.00 99 1007.4
20260509134520 21 67 0.0 0.0 0.00 0.00 0.00 99 1007.6
20260509134018 21 86 3.2 4.8 0.00 0.00 0.00 99 1007.6
20260509133514 22 55 1.6 3.2 0.00 0.00 0.00 99 1008.0
20260509133013 22 24 0.0 3.2 0.00 0.00 0.00 99 1007.8
20260509132511 22 81 0.0 0.0 0.00 0.00 0.00 99 1007.7
20260509132008 22 60 0.0 0.0 0.00 0.00 0.00 99 1007.9
20260509131504 22 55 0.0 0.0 0.00 0.00 0.00 99 1008.0
20260509131001 22 113 0.0 0.0 0.00 0.00 0.00 99 1008.1
20260509130456 22 94 0.0 0.0 0.00 0.00 0.00 99 1007.8
20260509125954 22 187 3.2 4.8 0.00 0.00 0.00 99 1007.7
20260509125450 22 205 1.6 3.2 0.00 0.00 0.00 99 1008.0
20260509124946 22 182 0.0 0.0 0.00 0.00 0.00 99 1007.9
20260509124443 22 99 0.0 0.0 0.00 0.00 0.00 99 1007.9
20260509123940 22 202 0.0 0.0 0.00 0.00 0.00 99 1008.3
20260509123438 22 149 0.0 0.0 0.00 0.00 0.00 99 1008.2
20260509122934 22 179 0.0 0.0 0.00 0.00 0.00 99 1008.1
20260509122431 22 163 0.0 0.0 0.00 0.00 0.00 99 1008.0
20260509121927 22 109 0.0 0.0 0.00 0.00 0.00 99 1008.4
20260509121424 22 72 0.0 0.0 0.00 0.00 0.00 99 1008.2
20260509120923 22 65 0.0 0.0 0.00 0.00 0.00 99 1008.5
20260509120420 22 62 0.0 0.0 0.00 0.00 0.00 99 1008.6
20260509115918 22 63 0.0 0.0 0.00 0.00 0.00 99 1008.5
20260509115415 22 64 0.0 0.0 0.00 0.00 0.00 99 1008.5
20260509114912 22 64 0.0 0.0 0.00 0.00 0.00 99 1008.5
20260509114411 22 54 0.0 0.0 0.00 0.00 0.00 99 1008.3
20260509113910 22 48 0.0 0.0 0.00 0.00 0.00 99 1007.9
20260509113407 22 61 0.0 0.0 0.00 0.00 0.00 99 1008.1
20260509112903 22 65 0.0 0.0 0.00 0.00 0.00 99 1007.8
20260509112400 22 46 0.0 0.0 0.00 0.00 0.00 99 1008.2
20260509111858 22 57 0.0 3.2 0.00 0.00 0.00 99 1008.2
20260509111354 22 79 0.0 0.0 0.00 0.00 0.00 99 1008.3
20260509110853 22 24 1.6 1.6 0.00 0.00 0.00 99 1007.9
20260509110348 22 46 0.0 1.6 0.00 0.00 0.00 99 1007.6
20260509105847 22 65 0.0 0.0 0.00 0.00 0.00 99 1007.2
20260509105345 22 146 0.0 0.0 0.00 0.00 0.00 99 1007.1
20260509104841 22 81 0.0 0.0 0.00 0.00 0.00 99 1007.1
20260509104337 22 89 0.0 0.0 0.00 0.00 0.00 99 1007.2
20260509103835 22 59 0.0 0.0 0.00 0.00 0.00 99 1007.5
20260509103332 22 72 0.0 0.0 0.00 0.00 0.00 99 1007.6
20260509102831 22 72 0.0 0.0 0.00 0.00 0.00 99 1007.6
20260509102328 22 72 0.0 0.0 0.00 0.00 0.00 99 1007.9
20260509101824 22 76 0.0 0.0 0.00 0.00 0.00 99 1007.7
20260509101320 22 76 0.0 0.0 0.00 0.00 0.00 99 1007.8
20260509100818 22 60 0.0 0.0 0.00 0.00 0.00 99 1008.0
20260509100315 22 85 0.0 0.0 0.00 0.00 0.00 99 1007.9
20260509095812 22 74 0.0 0.0 0.00 0.00 0.00 99 1007.7
20260509095309 22 54 0.0 0.0 0.00 0.00 0.00 99 1007.6
20260509094806 22 35 0.0 0.0 0.00 0.00 0.00 99 1007.3
20260509094302 22 79 0.0 0.0 0.00 0.00 0.00 99 1007.4
20260509093800 22 98 0.0 0.0 0.00 0.00 0.00 99 1007.5
20260509093257 22 64 0.0 0.0 0.00 0.00 0.00 99 1007.3
20260509092756 22 63 0.0 0.0 0.00 0.00 0.00 99 1007.3
20260509092254 22 84 0.0 0.0 0.00 0.00 0.00 99 1007.5
20260509091751 22 68 0.0 0.0 0.00 0.00 0.00 99 1007.4
20260509091248 22 95 0.0 0.0 0.00 0.00 0.00 99 1007.2
20260509090745 22 94 0.0 0.0 0.00 0.00 0.00 99 1007.2
20260509090242 22 85 0.0 0.0 0.00 0.00 0.00 99 1007.1
20260509085740 22 109 0.0 0.0 0.00 0.00 0.00 99 1007.1
20260509085237 22 111 0.0 0.0 0.00 0.00 0.00 99 1007.4
20260509084733 22 48 0.0 0.0 0.00 0.00 0.00 99 1007.5
20260509084230 22 72 0.0 0.0 0.00 0.00 0.00 99 1007.2
20260509083728 22 77 0.0 0.0 0.00 0.00 0.00 99 1007.1
20260509083225 22 77 0.0 0.0 0.00 0.00 0.00 99 1007.1
20260509082721 22 79 0.0 0.0 0.00 0.00 0.00 99 1007.0
20260509082218 22 110 0.0 0.0 0.00 0.00 0.00 99 1006.9
20260509081714 22 176 0.0 1.6 0.00 0.00 0.00 99 1007.1
20260509081212 22 162 0.0 0.0 0.00 0.00 0.00 99 1007.0
20260509080710 22 166 0.0 0.0 0.00 0.00 0.00 99 1007.1
20260509080208 22 203 1.6 3.2 0.00 0.00 0.00 99 1007.2
20260509075706 22 106 0.0 0.0 0.00 0.00 0.00 99 1006.9
20260509075203 22 185 3.2 3.2 0.00 0.00 0.00 99 1007.1
20260509074700 22 201 0.0 0.0 0.00 0.00 0.00 99 1007.0
20260509074156 22 129 0.0 0.0 0.00 0.00 0.00 99 1007.4
20260509073653 22 214 0.0 0.0 0.00 0.00 0.00 99 1007.2
20260509073149 22 194 0.0 0.0 0.00 0.00 0.00 99 1007.0
20260509072646 22 138 0.0 0.0 0.00 0.00 0.00 99 1007.4
20260509072143 22 150 0.0 0.0 0.00 0.00 0.00 99 1007.3